Charles City, IA (50616)

3:25 PM CDT on August 24, 2016 (GMT -0500)
Charles City Municipal | | Change Station

Elev 1125 ft 43.07 °N, 92.61 °W | Updated 10 minutes ago

Overcast
Overcast
79 °F
Feels Like 79 °F
N
6
Wind Variable Wind from NW

Today
High -- | Low -- °F
--% Chance of Precip.
Yesterday
High -- | Low -- °F
Precip. -- in
Pressure 29.96 in
Visibility 10.0 miles
Clouds Mostly Cloudy 1700 ft
Mostly Cloudy 2800 ft
Overcast 3300 ft
Dew Point 75 °F
Humidity 89%
Rainfall 0.00 in
Snow Depth Not available.
6:26 AM 7:58 PM
Waning Gibbous, 53% visible
METAR KCCY 242015Z AUTO 31005KT 10SM BKN017 BKN028 OVC033 26/24 A2996 RMK AO2
Pressure 29.96 in
Visibility 10.0 miles
Clouds Mostly Cloudy 1700 ft
Mostly Cloudy 2800 ft
Overcast 3300 ft
Dew Point 75 °F
Humidity 89%
Rainfall 0.00 in
Snow Depth Not available.
6:26 AM 7:58 PM
Waning Gibbous, 53% visible
METAR KCCY 242015Z AUTO 31005KT 10SM BKN017 BKN028 OVC033 26/24 A2996 RMK AO2

10-Day Weather Forecast

Almanac

Astronomy

Aug. 24, 2016 Rise Set
Actual Time
Civil Twilight
Nautical Twilight
Astronomical Twilight
Moon
Length of Visible Light
Length of Day
Tomorrow will be .
, % of the Moon is Illuminated

Today's Extremes

State Highs State Lows

Community

WunderPhotos

Upload Photos

1,934,700 photos uploaded!

WunderBlog® & News

Nearby

Air Quality

  Air Quality AQ Index Pollutant
Not available.

Snow Depth

Station Depth Elevation

Earthquake Activity

City Distance Mag. Time & Date
Minimum magnitude displayed is 2.5.

Coastal Water Temperatures

Place Temperature

Stations

Nearby Weather Stations

Station Location Temp. Windchill Dew Point Humidity Wind Precip. Elev Updated Type
                   

Watches & Warnings

Flood Warning
Issued: 3:03 PM CDT Aug. 24, 2016 – National Weather Service

The Flood Warning continues for
the Cedar River at Charles City.
* From this evening to Friday morning... or until the warning is
cancelled.
* At 2:30 PM Wednesday the stage was 8.5 feet.
* Flood stage is 12.0 feet.
* Minor flooding is forecast.
* Forecast... rise above flood stage by this evening and continue to
rise to near 12.9 feet by Thursday morning.
* Impact... at 12.0 feet... barricading of streets begins, and the
intersection of Riverside and Illinois streets may be flooded.


Lat... Lon 4321 9286 4321 9273 4301 9255 4293 9255 4304 9273